Eugene, OR

3:36 PM PST on November 18, 2019 (GMT -0800)
Mahlon Sweet

Weather History for KEUG - September, 2019

Change the Weather History Date:

Saturday, September 14, 2019

  Actual Average Record
Temperature  
Mean Temperature 66 °F 63 °F  
Max Temperature 79 °F 78 °F 95 °F (1967)
Min Temperature 53 °F 47 °F 33 °F (1970)
Degree Days  
Heating Degree Days 0 3  
Month to date heating degree days 7 35  
Since 1 July heating degree days 19 102  
Cooling Degree Days 1 1  
Month to date cooling degree days 43 21  
Year to date cooling degree days 351 229  
Growing Degree Days 16 (Base 50)    
Moisture  
Dew Point 55 °F    
Average Humidity 71    
Maximum Humidity 100    
Minimum Humidity 42    
Precipitation  
Precipitation 0.00 in 0.04 in 1.27 in (1996)
Month to date precipitation 1.66 0.50  
Year to date precipitation 24.87 26.51  
Sea Level Pressure  
Sea Level Pressure 30.01 in    
Wind  
Wind Speed 4 mph (SW)    
Max Wind Speed 13 mph    
Max Gust Speed 15 mph    
Visibility 8 miles    
Events Fog    
T = Trace of Precipitation, MM = Missing Value Source: NWS Daily Summary

Daily Weather History Graph

Daily Weather History Graph

Search for Another Location

Airport or City:

Astronomy

Sep. 14, 2019 Rise Set
Actual Time 6:50 AM PDT 7:25 PM PDT
Civil Twilight 6:21 AM PDT 7:54 PM PDT
Nautical Twilight 5:47 AM PDT 8:28 PM PDT
Astronomical Twilight 5:11 AM PDT 9:04 PM PDT
Moon 8:08 PM PDT (9/14) 7:08 AM PDT (9/14)
Length of Visible Light 13h 32m
Length of Day
12h 34m
Full, 100% of the Moon is Illuminated
Sep 14
Full
Sep 21
Last Quarter
Sep 28
New
Oct 5
First Quarter
Oct 13
Full

Hourly Weather History & Observations

Time (PDT) Temp. Dew Point Humidity Pressure Visibility Wind Dir Wind Speed Gust Speed Precip Events Conditions
12:54 AM 60.1 °F 55.0 °F 83% 30.09 in 10.0 mi Calm Calm - N/A   Clear
1:54 AM 57.0 °F 54.0 °F 89% 30.09 in 10.0 mi Calm Calm - N/A   Clear
2:54 AM 55.9 °F 54.0 °F 93% 30.08 in 10.0 mi Calm Calm - N/A   Clear
3:16 AM 55.9 °F 53.1 °F 90% 30.07 in 8.0 mi Calm Calm - N/A   Partly Cloudy
3:54 AM 53.1 °F 52.0 °F 96% 30.06 in 10.0 mi South 4.6 mph - N/A   Partly Cloudy
4:44 AM 53.1 °F 51.1 °F 93% 30.06 in 8.0 mi Calm Calm - N/A   Mostly Cloudy
4:54 AM 53.1 °F 51.1 °F 93% 30.06 in 6.0 mi Calm Calm - N/A   Overcast
5:54 AM 53.6 °F 51.8 °F 94% 30.06 in 0.2 mi South 3.5 mph - N/A Fog Fog
6:26 AM 54.0 °F 52.0 °F 93% 30.06 in 0.5 mi Calm Calm - N/A Fog Fog
6:54 AM 55.0 °F 54.0 °F 96% 30.07 in 0.2 mi Calm Calm - N/A Fog Fog
7:54 AM 55.4 °F 55.4 °F 100% 30.06 in 3.0 mi SW 3.5 mph - N/A Fog Mostly Cloudy
8:54 AM 57.2 °F 55.4 °F 94% 30.07 in 5.0 mi Calm Calm - N/A Fog Mostly Cloudy
9:42 AM 60.8 °F 57.2 °F 88% 30.07 in 6.0 mi Calm Calm - N/A Fog Mostly Cloudy
9:54 AM 61.0 °F 57.0 °F 87% 30.06 in 8.0 mi Calm Calm - N/A   Mostly Cloudy
10:54 AM 64.9 °F 57.0 °F 75% 30.04 in 10.0 mi Calm Calm - N/A   Mostly Cloudy
11:27 AM 66.9 °F 57.0 °F 70% 30.04 in 10.0 mi Variable 3.5 mph - N/A   Mostly Cloudy
11:54 AM 69.1 °F 57.0 °F 65% 30.02 in 10.0 mi Variable 3.5 mph - N/A   Mostly Cloudy
12:07 PM 70.0 °F 57.0 °F 63% 30.02 in 10.0 mi Calm Calm - N/A   Mostly Cloudy
12:54 PM 73.0 °F 57.9 °F 59% 30.01 in 10.0 mi SW 5.8 mph - N/A   Mostly Cloudy
1:54 PM 73.9 °F 55.9 °F 53% 29.99 in 10.0 mi WSW 8.1 mph - N/A   Mostly Cloudy
2:54 PM 75.0 °F 55.9 °F 51% 29.97 in 10.0 mi Variable 6.9 mph - N/A   Scattered Clouds
3:54 PM 77.0 °F 55.9 °F 48% 29.95 in 10.0 mi South 9.2 mph - N/A   Scattered Clouds
4:54 PM 78.1 °F 54.0 °F 43% 29.93 in 10.0 mi SSW 10.4 mph - N/A   Scattered Clouds
6:54 PM 73.0 °F 55.0 °F 53% 29.92 in 10.0 mi WSW 10.4 mph - N/A   Scattered Clouds
7:54 PM 68.0 °F 55.0 °F 63% 29.91 in 10.0 mi WSW 11.5 mph - N/A   Partly Cloudy
8:54 PM 64.0 °F 54.0 °F 70% 29.92 in 10.0 mi WSW 5.8 mph - N/A   Partly Cloudy
9:54 PM 61.0 °F 53.1 °F 75% 29.92 in 10.0 mi SSW 3.5 mph - N/A   Partly Cloudy
10:54 PM 57.9 °F 53.1 °F 84% 29.92 in 10.0 mi SSW 8.1 mph - N/A   Partly Cloudy
11:54 PM 57.0 °F 53.1 °F 87% 29.91 in 10.0 mi SSW 5.8 mph - N/A   Clear